This is the latest recevied weather packets stored in our database for station/object G0TQM-11. If no packets are shown the sender has not sent any weather packets the latest 10 day(s).
| Time | Temp. | Humidity | Pressure | Rain* | Wind** | Luminosity | Snow |
|---|---|---|---|---|---|---|---|
| 1788609720 | 22.22° C | 45% | 1020.7 hPa | - | - | - | - |
| 1788608520 | 21.11° C | 48% | 1020.7 hPa | - | - | - | - |
| 1788607319 | 20.56° C | 50% | 1020.5 hPa | - | - | - | - |
| 1788606119 | 20.56° C | 49% | 1020.5 hPa | - | - | - | - |
| 1788604919 | 20.56° C | 49% | 1020.5 hPa | - | - | - | - |
| 1788603719 | 20.56° C | 50% | 1020.2 hPa | - | - | - | - |
| 1788602519 | 20.56° C | 50% | 1020.2 hPa | - | - | - | - |
| 1788601319 | 18.89° C | 56% | 1020.2 hPa | - | - | - | - |
| 1788600119 | 20° C | 52% | 1019.9 hPa | - | - | - | - |
| 1788598918 | 18.33° C | 57% | 1019.8 hPa | - | - | - | - |
| 1788597718 | 18.89° C | 56% | 1019.5 hPa | - | - | - | - |
| 1788596518 | 18.33° C | 56% | 1019.2 hPa | - | - | - | - |
| 1788595318 | 18.89° C | 56% | 1018.7 hPa | - | - | - | - |
| 1788594118 | 18.89° C | 53% | 1018.5 hPa | - | - | - | - |
| 1788592918 | 18.33° C | 55% | 1018.4 hPa | - | - | - | - |
| 1788591718 | 18.33° C | 55% | 1018 hPa | - | - | - | - |
| 1788590517 | 18.33° C | 55% | 1017.7 hPa | - | - | - | - |
| 1788589317 | 17.78° C | 58% | 1017.4 hPa | - | - | - | - |
| 1788588117 | 17.78° C | 57% | 1017.3 hPa | - | - | - | - |
| 1788586917 | 17.22° C | 56% | 1017 hPa | - | - | - | - |
| 1788585717 | 17.78° C | 58% | 1016.8 hPa | - | - | - | - |
| 1788584517 | 17.78° C | 59% | 1016.5 hPa | - | - | - | - |
| 1788583317 | 17.22° C | 58% | 1016.5 hPa | - | - | - | - |
| 1788582116 | 17.22° C | 59% | 1016.4 hPa | - | - | - | - |
| 1788580916 | 17.22° C | 59% | 1016 hPa | - | - | - | - |
* Rain since midnight (hover to see other rain measurements)
** Current wind speed in m/s (hover to see current wind gust speed)